Regional Weather Roundup
Issued by NWS

Home | Current Version | Previous Version | Text Only | Print | Product List | Glossary On
Versions: 1 2 3 4 5 6 7 8 9 10 11 12 13 14 15 16 17 18 19 20
000
ASCA42 TJSJ 231110
RWRPR
PUERTO RICO/U.S. VIRGIN ISLANDS HOURLY WEATHER ROUNDUP
NATIONAL WEATHER SERVICE SAN JUAN PR
700 AM AST SAT SEP 23 2017

PRZ001>002-007>008-010-231200-
PUERTO RICO

CITY           SKY/WX    TMP DP  RH WIND       PRES   REMARKS
SAN JUAN LMM   NOT AVBL
$$

VIZ001>002-231200-
U.S. VIRGIN ISLANDS

CITY           SKY/WX    TMP DP  RH WIND       PRES   REMARKS
$$

HOURLY WEATHER ROUNDUP FOR THE NEWS MEDIA

CITY           SKY/WX    TMP DP  RH WIND       PRES   REMARKS
ORLANDO        CLOUDY    76  73  91 N6        29.89R
NEW YORK       PTCLDY    70  56  61 N10       30.00R
NEWARK         PTCLDY    71  51  49 N12       30.00S
CHICAGO        PTCLDY    74  65  73 CALM      30.06R
HARTFORD       CLOUDY    61  60  97 N12G20    29.94S FOG
BOSTON         CLOUDY    62  60  93 N10       30.00S
DALLAS         PTCLDY    76  68  76 S7        29.93S
PHILADELPHIA   MOCLDY    67  52  58 N7        30.03S
LOS ANGELES    PTCLDY    59  55  87 E3        29.82R
WASHINGTON DC  PTCLDY    59  59 100 NW5       30.08R



USA.gov is the U.S. government's official web portal to all federal, state and local government web resources and services.